Location: Black Creek
(40.9000°S, 175.5500°E)
Time: 02:05:32
(UTC+00:00)

Explorer 7 - Visible Passes

Search period start: 12 November 2024 00:00
Search period end: 22 November 2024 00:00
Orbit: 457 x 601 km, 50.3° (Epoch: 11 November)

Date Brightness Start Highest point End Pass type
(mag) Time Alt. Az. Time Alt. Az. Time Alt. Az.
12 Nov 7.3 09:07:54 10° SW 09:11:34 45° SSE 09:12:33 35° ESE visible
12 Nov 9.5 10:47:31 10° WSW 10:47:46 11° WSW 10:47:46 11° WSW visible
13 Nov 7.0 08:55:35 10° SW 08:59:18 52° SSE 09:00:37 33° E visible
13 Nov 9.3 10:35:24 10° W 10:35:50 12° W 10:35:50 12° W visible
14 Nov 6.8 08:43:12 10° SW 08:47:00 62° SSE 08:48:41 29° ENE visible
14 Nov 9.2 10:23:17 10° W 10:23:54 13° W 10:23:54 13° W visible
15 Nov 6.6 08:30:49 10° SW 08:34:39 75° SSE 08:36:45 24° ENE visible
15 Nov 9.2 10:11:15 10° W 10:11:57 13° WNW 10:11:57 13° WNW visible
16 Nov 6.5 08:18:22 10° WSW 08:22:14 89° SSE 08:24:49 19° NE visible
16 Nov 9.2 09:59:22 10° WNW 10:00:02 12° WNW 10:00:02 12° WNW visible
17 Nov 6.6 08:05:55 10° WSW 08:09:46 75° NW 08:12:54 14° NE visible
18 Nov 6.9 07:53:26 10° WSW 07:57:15 62° NW 08:00:54 10° NE visible
